Regional Weather Roundup
Issued by NWS

Home | Current Version | Previous Version | Text Only | Print | Product List | Glossary On
Versions: 1 2 3 4 5 6 7 8 9 10 11 12 13 14 15 16 17 18 19 20 21 22 23 24 25 26 27 28 29 30 31 32 33 34 35 36 37 38 39 40 41 42 43 44 45 46 47 48 49 50
756
ASUS44 KLIX 010311
RWRLA
LOUISIANA WEATHER ROUNDUP
NATIONAL WEATHER SERVICE NEW ORLEANS LA
1000 PM CDT WED AUG 31 2016

NOTE: "FAIR" INDICATES FEW OR NO CLOUDS BELOW 12,000 FEET WITH NO
      SIGNIFICANT WEATHER AND/OR OBSTRUCTIONS TO VISIBILITY.
      SKY/WX - SKY CONDITION AND SIGNIFICANT WEATHER.
      TMP - AIR TEMPERATURE.    DP   - DEWPOINT TEMPERATURE.
      RH  - RELATIVE HUMIDITY.  PRES - PRESSURE.
      HX  - HEAT INDEX.         WCI  - WIND CHILL INDEX.

*  THESE STATIONS ARE NOT NWS OR FAA STATIONS AND ARE NOT UNDER
   NWS QUALITY CONTROL.

LAZ040-048-061>063-065-066-069-010400-
SOUTHEAST LOUISIANA

CITY           SKY/WX    TMP DP  RH WIND       PRES   REMARKS
N.O. AUDUBON     N/A     86  76  71 MISG        N/A  HX  96
N.O. INTL ARPT PTCLDY    88  74  63 E3        29.85R HX  96
N.O. LAKEFRONT CLEAR     87  75  67 E6        29.85R HX  96
N.O. DOWNTOWN* FAIR      87  75  67 CALM      29.86  HX  96
RESERVE*       FAIR      84  77  79 CALM      29.86R
SLIDELL        CLEAR     80  77  90 CALM      29.85R
BATON ROUGE    CLEAR     82  75  79 N5        29.87R
BOOTHVILLE     NOT AVBL
BELLE CHASSE   PTCLDY    78  77  96 CALM      29.85R
BOGALUSA*      FAIR      80  74  82 N3        29.88R
GALLIANO*      CLEAR    N/A N/A N/A CALM      29.84R
NEW ROADS*     FAIR      81  76  86 MISG      29.88R
GONZALES*      FAIR      79  77  94 CALM      29.86R
HAMMOND*       CLEAR     79  73  83 N3        29.86R
HOUMA*         MOCLDY    78  76  96 CALM      29.85R
PORT FOURCHON* CLEAR     84  77  79 NE7       29.84R

$$

LAZ041-044-053-054-010400-
SOUTHWEST LOUISIANA

CITY           SKY/WX    TMP DP  RH WIND       PRES   REMARKS
LAKE CHARLES   PTCLDY    80  75  84 NW3       29.88R
LAFAYETTE      CLEAR     84  74  71 N6        29.87R
PATTERSON      CLEAR     81  78  91 CALM      29.87R
SALT POINT       N/A     81  76  84 CALM      29.85R
NEW IBERIA     CLEAR     82  74  76 N6        29.87R
CHENAULT AIRPK   N/A     79  73  83 N3        29.83S

$$

LAZ027-028-010400-
CENTRAL LOUISIANA

CITY           SKY/WX    TMP DP  RH WIND       PRES   REMARKS
FORT POLK      CLEAR     82  73  75 VRB6      29.90R
ALEXANDRIA INT CLEAR     82  74  76 N5        29.89R
ALEXANDRIA     CLEAR     79  76  90 CALM      29.90R

$$

LAZ001-002-010400-
NORTHWEST LOUISIANA

CITY           SKY/WX    TMP DP  RH WIND       PRES   REMARKS
SHREVEPORT     CLEAR     84  75  74 N5        29.93R
BARKSDALE AFB  CLEAR     81  75  82 NE2       29.93R
DTN SHREVEPORT CLEAR     83  74  74 CALM      29.93R

$$

LAZ014-016-010400-
NORTHEAST LOUISIANA

CITY           SKY/WX    TMP DP  RH WIND       PRES   REMARKS
MONROE         CLEAR     81  77  88 N6        29.92R
TALLULAH       CLEAR     81  75  82 N3        29.90R

$$





USA.gov is the U.S. government's official web portal to all federal, state and local government web resources and services.